TimeMDT,TemperatureF,Dew PointF,Humidity,Sea Level PressureIn,VisibilityMPH,Wind Direction,Wind SpeedMPH,Gust SpeedMPH,PrecipitationIn,Events,Conditions,WindDirDegrees,DateUTC
12:10 AM,53.6,48.2,82,30.28,10.0,NNE,3.5,-,N/A,,Overcast,20,2013-09-07 06:10:00
12:30 AM,51.8,48.2,88,30.28,10.0,Calm,Calm,-,N/A,,Mostly Cloudy,0,2013-09-07 06:30:00
12:50 AM,51.8,46.4,82,30.28,10.0,Calm,Calm,-,N/A,,Overcast,0,2013-09-07 06:50:00
1:10 AM,51.8,48.2,88,30.28,10.0,SSE,4.6,-,N/A,,Overcast,160,2013-09-07 07:10:00
1:30 AM,51.8,46.4,82,30.28,10.0,Calm,Calm,-,N/A,,Overcast,0,2013-09-07 07:30:00
1:50 AM,51.8,46.4,82,30.28,10.0,SSE,3.5,-,N/A,,Mostly Cloudy,150,2013-09-07 07:50:00
2:10 AM,50.0,44.6,82,30.28,10.0,Calm,Calm,-,N/A,,Partly Cloudy,0,2013-09-07 08:10:00
2:30 AM,48.2,42.8,82,30.28,10.0,Calm,Calm,-,N/A,,Clear,0,2013-09-07 08:30:00
2:50 AM,46.4,41.0,81,30.28,10.0,Calm,Calm,-,N/A,,Clear,0,2013-09-07 08:50:00
3:10 AM,46.4,41.0,81,30.29,10.0,Calm,Calm,-,N/A,,Clear,0,2013-09-07 09:10:00
3:30 AM,46.4,41.0,81,30.29,10.0,Calm,Calm,-,N/A,,Clear,0,2013-09-07 09:30:00
3:50 AM,44.6,41.0,87,30.28,10.0,Calm,Calm,-,N/A,,Clear,0,2013-09-07 09:50:00
4:10 AM,44.6,39.2,81,30.28,10.0,Calm,Calm,-,N/A,,Clear,0,2013-09-07 10:10:00
4:30 AM,44.6,39.2,81,30.29,10.0,Calm,Calm,-,N/A,,Clear,0,2013-09-07 10:30:00
4:50 AM,41.0,37.4,87,30.28,10.0,Calm,Calm,-,N/A,,Clear,0,2013-09-07 10:50:00
5:05 AM,41.0,37.4,87,30.29,10.0,Calm,Calm,-,N/A,,Clear,0,2013-09-07 11:05:00
5:30 AM,41.0,37.4,87,30.29,10.0,Calm,Calm,-,N/A,,Clear,0,2013-09-07 11:30:00
5:50 AM,41.0,37.4,87,30.29,10.0,Calm,Calm,-,N/A,,Clear,0,2013-09-07 11:50:00
6:10 AM,41.0,35.6,81,30.29,10.0,Calm,Calm,-,N/A,,Clear,0,2013-09-07 12:10:00
6:30 AM,39.2,35.6,87,30.29,10.0,Calm,Calm,-,N/A,,Clear,0,2013-09-07 12:30:00
6:50 AM,39.2,35.6,87,30.29,10.0,Calm,Calm,-,N/A,,Clear,0,2013-09-07 12:50:00
7:10 AM,41.0,37.4,87,30.30,10.0,West,3.5,-,N/A,,Clear,260,2013-09-07 13:10:00
7:30 AM,42.8,37.4,81,30.30,10.0,Calm,Calm,-,N/A,,Clear,0,2013-09-07 13:30:00
7:50 AM,44.6,39.2,81,30.30,10.0,Calm,Calm,-,N/A,,Clear,0,2013-09-07 13:50:00
8:10 AM,44.6,39.2,81,30.30,10.0,Calm,Calm,-,N/A,,Clear,0,2013-09-07 14:10:00
8:30 AM,48.2,44.6,87,30.30,10.0,Calm,Calm,-,N/A,,Scattered Clouds,0,2013-09-07 14:30:00
8:50 AM,50.0,46.4,87,30.31,10.0,Calm,Calm,-,N/A,,Partly Cloudy,0,2013-09-07 14:50:00
9:10 AM,53.6,48.2,82,30.31,10.0,Calm,Calm,-,N/A,,Clear,0,2013-09-07 15:10:00
9:30 AM,55.4,50.0,82,30.31,10.0,ENE,3.5,-,N/A,,Clear,60,2013-09-07 15:30:00
9:50 AM,57.2,53.6,88,30.31,10.0,Calm,Calm,-,N/A,,Clear,0,2013-09-07 15:50:00
10:10 AM,59.0,55.4,88,30.31,10.0,Calm,Calm,-,N/A,,Clear,0,2013-09-07 16:10:00
10:30 AM,64.4,59.0,83,30.30,10.0,South,9.2,-,N/A,,Clear,180,2013-09-07 16:30:00
10:50 AM,66.2,60.8,83,30.30,10.0,SSW,11.5,-,N/A,,Clear,210,2013-09-07 16:50:00
11:10 AM,66.2,62.6,88,30.30,10.0,South,12.7,17.3,N/A,,Clear,170,2013-09-07 17:10:00
11:30 AM,68.0,64.4,88,30.30,10.0,WSW,8.1,-,N/A,,Clear,240,2013-09-07 17:30:00
11:50 AM,68.0,64.4,88,30.29,10.0,SW,9.2,-,N/A,,Clear,230,2013-09-07 17:50:00
12:10 PM,69.8,64.4,83,30.29,10.0,West,4.6,-,N/A,,Clear,280,2013-09-07 18:10:00
12:30 PM,69.8,64.4,83,30.28,10.0,SW,5.8,-,N/A,,Partly Cloudy,220,2013-09-07 18:30:00
12:50 PM,71.6,66.2,83,30.28,10.0,SW,8.1,-,N/A,,Partly Cloudy,230,2013-09-07 18:50:00
1:10 PM,71.6,66.2,83,30.27,10.0,WSW,9.2,19.6,N/A,,Clear,240,2013-09-07 19:10:00
1:30 PM,71.6,66.2,83,30.27,10.0,SW,8.1,18.4,N/A,,Partly Cloudy,220,2013-09-07 19:30:00
1:50 PM,73.4,68.0,83,30.26,10.0,South,11.5,18.4,N/A,,Scattered Clouds,190,2013-09-07 19:50:00
2:10 PM,73.4,68.0,83,30.25,10.0,SSW,15.0,24.2,N/A,,Partly Cloudy,210,2013-09-07 20:10:00
2:30 PM,75.2,71.6,89,30.25,10.0,SSW,20.7,26.5,N/A,,Clear,200,2013-09-07 20:30:00
2:50 PM,73.4,68.0,83,30.25,10.0,SW,17.3,28.8,N/A,,Clear,220,2013-09-07 20:50:00
3:10 PM,73.4,68.0,83,30.24,10.0,SW,16.1,21.9,N/A,,Clear,230,2013-09-07 21:10:00
3:30 PM,73.4,68.0,83,30.24,10.0,SSW,17.3,26.5,N/A,,Clear,210,2013-09-07 21:30:00
3:50 PM,73.4,68.0,83,30.23,10.0,SSW,11.5,23.0,N/A,,Clear,210,2013-09-07 21:50:00
4:10 PM,73.4,68.0,83,30.22,10.0,SW,16.1,23.0,N/A,,Clear,220,2013-09-07 22:10:00
4:30 PM,73.4,68.0,83,30.23,10.0,WSW,15.0,25.3,N/A,,Partly Cloudy,240,2013-09-07 22:30:00
4:50 PM,71.6,66.2,83,30.23,10.0,SW,12.7,18.4,N/A,,Clear,230,2013-09-07 22:50:00
5:10 PM,69.8,64.4,83,30.26,10.0,West,17.3,26.5,N/A,,Mostly Cloudy,260,2013-09-07 23:10:00
5:30 PM,57.2,51.8,82,30.29,4.0,WSW,12.7,19.6,0.09,Rain,Light Rain,250,2013-09-07 23:30:00
5:50 PM,57.2,51.8,82,30.29,10.0,SSE,11.5,-,0.09,,Mostly Cloudy,160,2013-09-07 23:50:00
6:10 PM,57.2,51.8,82,30.29,10.0,ENE,4.6,-,N/A,,Overcast,70,2013-09-08 00:10:00
6:30 PM,57.2,51.8,82,30.28,10.0,ENE,6.9,-,N/A,,Mostly Cloudy,60,2013-09-08 00:30:00
6:50 PM,57.2,53.6,88,30.27,10.0,ENE,3.5,-,N/A,,Mostly Cloudy,70,2013-09-08 00:50:00
7:10 PM,57.2,51.8,82,30.26,10.0,NW,4.6,-,N/A,,Partly Cloudy,310,2013-09-08 01:10:00
7:30 PM,55.4,51.8,88,30.26,10.0,Calm,Calm,-,N/A,,Clear,0,2013-09-08 01:30:00
7:50 PM,55.4,50.0,82,30.26,10.0,WNW,4.6,-,N/A,,Clear,300,2013-09-08 01:50:00
8:10 PM,53.6,50.0,88,30.26,10.0,Calm,Calm,-,N/A,,Clear,0,2013-09-08 02:10:00
8:30 PM,53.6,48.2,82,30.26,10.0,Calm,Calm,-,N/A,,Clear,0,2013-09-08 02:30:00
8:50 PM,53.6,48.2,82,30.26,10.0,Calm,Calm,-,N/A,,Clear,0,2013-09-08 02:50:00
9:10 PM,50.0,46.4,87,30.26,10.0,Calm,Calm,-,N/A,,Clear,0,2013-09-08 03:10:00
9:30 PM,50.0,46.4,87,30.26,10.0,Calm,Calm,-,N/A,,Clear,0,2013-09-08 03:30:00
9:50 PM,50.0,46.4,87,30.26,10.0,Calm,Calm,-,N/A,,Clear,0,2013-09-08 03:50:00
10:10 PM,50.0,46.4,87,30.27,10.0,Calm,Calm,-,N/A,,Clear,0,2013-09-08 04:10:00
10:30 PM,50.0,46.4,87,30.26,10.0,Calm,Calm,-,N/A,,Clear,0,2013-09-08 04:30:00
10:50 PM,50.0,46.4,87,30.25,10.0,Calm,Calm,-,N/A,,Clear,0,2013-09-08 04:50:00
11:10 PM,48.2,44.6,87,30.25,10.0,NW,4.6,-,N/A,,Clear,320,2013-09-08 05:10:00
11:30 PM,48.2,44.6,87,30.25,10.0,Calm,Calm,-,N/A,,Clear,0,2013-09-08 05:30:00
11:50 PM,46.4,42.8,87,30.25,10.0,Calm,Calm,-,N/A,,Clear,0,2013-09-08 05:50:00